[[{"header":{"parameterUnit":"m.s-1","parameterCategory":2,"la1":30.2991,"la2":30.254,"lo1":-89.0895,"lo2":-89.0444,"dy":0.0017,"dx":0.0017,"nx":28,"ny":28,"refTime":"2024-06-03T03:00:00:Z","depth":"0","parameterNumber":2,"parameterNumberName":"U-component_of_CURRENTS"},"data":[0,0,0,0,0,0,0,0,0,0,0,0,0,0,0,0,0,0,0,0,0,0,0,0,0,0,0,0,0,0,0,0,0,0,0,0,0,0,0,0,0,0,0,0,0,0,0,0,0,0,0,0,0,0,0,0,0,0,0.2787,0.2787,0,0.2798,0.2798,0.2798,0.2781,0.2781,0.278,0.278,0.2777,0.2777,0.2777,0,0,0,0,0,0,0,0,0,0,0,0,0,0.2784,0.2784,0.2787,0.2787,0.2788,0.2798,0.2798,0.2798,0.2781,0.2781,0.278,0.278,0.2777,0.2777,0.2777,0,0,0,0,0,0,0,0,0,0,0,0,0,0.2788,0.2784,0.2787,0.2782,0.2782,0.2798,0.2798,0.2798,0.2781,0.2781,0.278,0.2779,0.2776,0.2777,0.2777,0.2793,0,0,0.2779,0.2779,0,0,0,0,0,0,0,0,0.2788,0.2788,0.2782,0.2782,0.2782,0.2789,0.2796,0.2796,0.2781,0.278,0.278,0.2779,0.2781,0.2781,0.2782,0.2793,0.2793,0.2779,0.2779,0.2779,0.2779,0,0,0,0,0,0,0,0.2787,0.2787,0.279,0.2783,0.2782,0.279,0.2789,0.2796,0.2782,0.278,0.2779,0.2783,0.278,0.2782,0.2782,0.2793,0.2779,0.2779,0.278,0.278,0.2856,0.2857,0,0,0,0,0,0,0.2788,0.2787,0.2789,0.279,0.2785,0.279,0.2789,0.2786,0.2783,0.2782,0.2783,0.2782,0.2781,0.2782,0.2782,0.2828,0.2779,0.278,0.278,0.2854,0.2856,0.2858,0,0,0,0,0,0,0.2788,0.2788,0.2789,0.2791,0.2791,0.2791,0.2787,0.2787,0.2793,0.2786,0.2784,0.2791,0.2781,0.2781,0.2801,0.2827,0.278,0.278,0.2852,0.2855,0.2857,0.2903,0,0,0,0,0,0,0.2788,0.2788,0.2788,0.279,0.2791,0.2803,0.2788,0.2787,0.2796,0.2795,0.2792,0.279,0.2781,0.28,0.2801,0.2827,0.2781,0.285,0.2853,0.2856,0.29,0.2907,0.2914,0,0,0,0,0,0.2787,0.2789,0.2788,0.2789,0.2791,0.2804,0.2805,0.2802,0.2797,0.2804,0.2808,0.2791,0.2822,0.2802,0.2803,0.2829,0.2848,0.2852,0.2856,0.2897,0.2906,0.2914,0,0,0,0,0,0,0.2788,0.2788,0.2787,0.2788,0.2799,0.2802,0.2807,0.281,0.2818,0.2817,0.2809,0.2808,0.2839,0.2831,0.2809,0.2863,0.2834,0.2838,0.2865,0.2873,0.288,0.2893,0.2781,0,0,0,0,0,0.2789,0.279,0.2796,0.2799,0.2804,0.2809,0.2815,0.2817,0.2824,0.2826,0.2825,0.2834,0.2856,0.2861,0.2873,0.2897,0.2907,0.2918,0.2925,0.2931,0.2944,0.2993,0.3005,0.2871,0.2871,0.2871,0,0,0.279,0.2792,0.2791,0.28,0.2805,0.2821,0.281,0.2823,0.2845,0.2826,0.2849,0.2858,0.2871,0.2902,0.2914,0.2896,0.2973,0.2936,0.294,0.2951,0.2998,0.3011,0.3023,0.2873,0.2873,0.2872,0,0,0.2792,0.2794,0.2795,0.2809,0.2822,0.2833,0.284,0.285,0.2861,0.2888,0.2889,0.2918,0.2932,0.2955,0.2968,0.3025,0.3012,0.3024,0.3064,0.3111,0.3122,0.3132,0.3151,0.3163,0.3023,0.3023,0.3023,0,0.2794,0.2795,0.28,0.2811,0.2828,0.2841,0.2858,0.2879,0.2896,0.2918,0.2901,0.2961,0.2965,0.3026,0.3045,0.3041,0.3054,0.3027,0.312,0.313,0.314,0.3157,0.3169,0.3026,0.3025,0.3025,0.3025,0,0.2798,0.2806,0.2812,0.2831,0.2853,0.2871,0.2902,0.2926,0.2941,0.2965,0.3022,0.3035,0.3071,0.3081,0.3079,0.3155,0.3136,0.3125,0.3095,0.3156,0.317,0.3182,0.3029,0.3028,0.3028,0.3027,0,0,0.2778,0.2807,0.2809,0.2814,0.2866,0.2873,0.2932,0.2982,0.3012,0.3048,0.3096,0.3149,0.3159,0.3177,0.3182,0.3221,0.3294,0.3202,0.3203,0.3215,0.3381,0.3315,0.3321,0.3297,0.3299,0.3301,0.3359,0,0.2778,0.2793,0.2821,0.2845,0.2854,0.2903,0.295,0.3003,0.3048,0.3097,0.3151,0.3192,0.3196,0.3206,0.3259,0.3289,0.3329,0.3278,0.3326,0.3327,0.3257,0.3334,0.3187,0.3223,0.3371,0.3372,0.3374,0,0.2765,0.2779,0.2799,0.2836,0.2846,0.2872,0.2942,0.2991,0.3089,0.3126,0.3202,0.3233,0.332,0.3295,0.3403,0.337,0.3387,0.3402,0.3404,0.3337,0.3284,0.319,0.3238,0.3183,0.3392,0.339,0.3389,0,0.2719,0.2755,0.2766,0.2782,0.2838,0.2861,0.2903,0.2997,0.3058,0.3148,0.3204,0.3292,0.3352,0.3401,0.3455,0.343,0.3557,0.352,0.3477,0.3471,0.3354,0.3334,0.3351,0.3594,0.3594,0.3594,0.3593,0,0.2698,0.27,0.2737,0.2739,0.2764,0.2818,0.2873,0.2931,0.3045,0.3119,0.3214,0.3286,0.3386,0.3469,0.3485,0.3532,0.3589,0.3506,0.3496,0.3364,0.3345,0.3295,0.3266,0.3596,0.3595,0.3595,0.3594,0,0.2641,0.2668,0.2675,0.2721,0.2739,0.2755,0.2863,0.2901,0.3022,0.3125,0.3161,0.3322,0.3419,0.3502,0.3587,0.3576,0.3501,0.3599,0.3426,0.3395,0.3265,0.3242,0.3092,0.3008,0.3549,0.3548,0.3547,0,0.2612,0.2608,0.2647,0.2653,0.2672,0.2719,0.2753,0.2875,0.2932,0.3133,0.3171,0.3325,0.3401,0.3527,0.3531,0.3555,0.3466,0.3416,0.3342,0.3259,0.3229,0.3074,0.3004,0.3201,0.3198,0.3195,0.3192,0,0.2561,0.2573,0.2581,0.2597,0.2616,0.265,0.271,0.2759,0.2901,0.2999,0.3122,0.3205,0.3355,0.3338,0.3396,0.338,0.3236,0.3353,0.3323,0.3013,0.2791,0.2703,0.3151,0.3166,0.3168,0.317,0.3172,0.3173,0.2521,0.2512,0.2522,0.2524,0.2545,0.2549,0.2547,0.2622,0.2699,0.2807,0.2973,0.305,0.3151,0.3216,0.319,0.3082,0.3059,0.2972,0.2969,0.2833,0.2694,0.3074,0.3043,0.3044,0.3046,0.3048,0.3049,0,0.2456,0.2447,0.2448,0.2435,0.2406,0.2454,0.2484,0.2464,0.2482,0.2627,0.2721,0.2822,0.2814,0.2877,0.284,0.2728,0.2582,0.2648,0.242,0.2387,0.2787,0.2717,0.2545,0.2546,0.2546,0.2546,0.2546,0.2546,0.2423,0.2385,0.2372,0.2291,0.2276,0.2211,0.2197,0.2187,0.2254,0.2306,0.2372,0.2484,0.2639,0.2648,0.2542,0.2471,0.2303,0.2145,0.2185,0.251,0.254,0.2569,0.2499,0.2284,0.2284,0.1654,0.1649,0.1646]},{"header":{"parameterUnit":"m.s-1","parameterCategory":2,"la1":30.2991,"la2":30.254,"lo1":-89.0895,"lo2":-89.0444,"dy":0.0017,"dx":0.0017,"nx":28,"ny":28,"refTime":"2024-06-03T03:00:00:Z","depth":"0","parameterNumber":3,"parameterNumberName":"V-component_of_CURRENTS"},"data":[0,0,0,0,0,0,0,0,0,0,0,0,0,0,0,0,0,0,0,0,0,0,0,0,0,0,0,0,0,0,0,0,0,0,0,0,0,0,0,0,0,0,0,0,0,0,0,0,0,0,0,0,0,0,0,0,0,0,0.0348,0.0348,0,0.031,0.0309,0.0309,0.028,0.028,0.028,0.0279,0.0232,0.0231,0.023,0,0,0,0,0,0,0,0,0,0,0,0,0,0.0353,0.0353,0.0348,0.0348,0.0347,0.031,0.0309,0.0309,0.028,0.028,0.028,0.0279,0.0232,0.0231,0.0229,0,0,0,0,0,0,0,0,0,0,0,0,0,0.0336,0.0353,0.0348,0.0329,0.0327,0.031,0.0309,0.0308,0.028,0.028,0.0279,0.0279,0.0233,0.0231,0.0229,0.0224,0,0,0.0224,0.0223,0,0,0,0,0,0,0,0,0.0337,0.0335,0.0332,0.0331,0.0328,0.03,0.0293,0.028,0.028,0.0297,0.0279,0.0279,0.0255,0.0251,0.0243,0.0222,0.0219,0.0224,0.0223,0.0222,0.0222,0,0,0,0,0,0,0,0.0338,0.0337,0.0332,0.0332,0.033,0.0308,0.0305,0.0291,0.0277,0.0295,0.0293,0.0291,0.0253,0.0245,0.0242,0.0219,0.0224,0.0223,0.0222,0.0221,0.0197,0.0197,0,0,0,0,0,0,0.0347,0.0338,0.0333,0.0331,0.0333,0.0308,0.0305,0.0309,0.0277,0.0272,0.0291,0.029,0.0248,0.0244,0.024,0.0251,0.0222,0.0221,0.022,0.0196,0.0197,0.0197,0,0,0,0,0,0,0.0348,0.0348,0.0335,0.0334,0.0331,0.0309,0.0312,0.0308,0.0303,0.0274,0.0269,0.0291,0.0247,0.0242,0.0235,0.0248,0.022,0.0218,0.0196,0.0196,0.0197,0.026,0,0,0,0,0,0,0.0348,0.0348,0.0354,0.0335,0.0331,0.0334,0.0313,0.0307,0.0302,0.03,0.0272,0.0267,0.0247,0.0237,0.0233,0.0245,0.0217,0.0195,0.0196,0.0197,0.0258,0.0263,0.0267,0,0,0,0,0,0.0349,0.036,0.0355,0.0354,0.034,0.0335,0.0332,0.0313,0.0302,0.0306,0.0287,0.0268,0.0238,0.0236,0.0231,0.0243,0.0195,0.0196,0.0197,0.0255,0.0262,0.0267,0,0,0,0,0,0,0.0363,0.0358,0.0351,0.036,0.0353,0.0331,0.0331,0.0319,0.0306,0.0302,0.0274,0.0268,0.0264,0.0245,0.0243,0.0237,0.0213,0.0213,0.0259,0.0265,0.027,0.0289,0.0216,0,0,0,0,0,0.0371,0.038,0.0368,0.0375,0.0372,0.0353,0.0348,0.0337,0.0322,0.0316,0.0297,0.0277,0.0262,0.0258,0.0239,0.0239,0.0217,0.0242,0.0247,0.0251,0.0263,0.024,0.0244,0.02,0.02,0.02,0,0,0.0378,0.0376,0.0381,0.0379,0.0369,0.0378,0.0349,0.0346,0.0356,0.0313,0.0318,0.0291,0.0265,0.0263,0.026,0.0251,0.0251,0.0252,0.0257,0.0266,0.0241,0.0246,0.025,0.02,0.02,0.02,0,0,0.0401,0.0396,0.0412,0.0411,0.0404,0.0395,0.0398,0.0382,0.0377,0.0377,0.0347,0.0333,0.0312,0.0298,0.0288,0.0308,0.0274,0.0299,0.0345,0.0322,0.0326,0.0329,0.0305,0.0305,0.0306,0.0306,0.0306,0,0.041,0.0432,0.0415,0.0431,0.0438,0.0409,0.043,0.0421,0.0405,0.041,0.0387,0.0358,0.033,0.0335,0.034,0.0321,0.0301,0.0327,0.033,0.0332,0.0334,0.0309,0.0308,0.0309,0.0309,0.0308,0.0308,0,0.0447,0.0464,0.0473,0.0488,0.0492,0.0504,0.0493,0.0495,0.0481,0.0474,0.047,0.0428,0.0414,0.0399,0.0376,0.038,0.0358,0.0336,0.0319,0.0343,0.0314,0.0313,0.0314,0.0312,0.0311,0.0311,0,0,0.0474,0.0497,0.0502,0.0524,0.0526,0.0536,0.0552,0.0565,0.0589,0.0555,0.0579,0.0537,0.0509,0.0495,0.0458,0.0438,0.0427,0.04,0.0397,0.0383,0.0377,0.0361,0.0357,0.0404,0.0405,0.0405,0.0351,0,0.0512,0.0561,0.056,0.0607,0.0634,0.0619,0.0645,0.065,0.0646,0.0659,0.0611,0.061,0.0548,0.0542,0.0512,0.0452,0.0426,0.0443,0.035,0.0348,0.0336,0.0356,0.0394,0.035,0.0349,0.0349,0.0349,0,0.0553,0.0584,0.0639,0.0684,0.0694,0.0714,0.0754,0.0777,0.0781,0.0777,0.0758,0.0715,0.0681,0.0621,0.0531,0.0545,0.0469,0.0414,0.041,0.0374,0.0329,0.0325,0.0346,0.0262,0.0346,0.0346,0.0346,0,0.0592,0.0642,0.0692,0.0705,0.0746,0.0767,0.0791,0.0812,0.0853,0.0851,0.0874,0.081,0.0794,0.0689,0.0564,0.0549,0.0462,0.0424,0.0335,0.0333,0.0338,0.0335,0.0275,0.0358,0.0358,0.0358,0.0358,0,0.0638,0.0678,0.0713,0.074,0.0814,0.0818,0.0895,0.0908,0.0945,0.1013,0.094,0.0968,0.0811,0.0737,0.0603,0.0472,0.0487,0.0352,0.0323,0.0359,0.036,0.0264,0.0205,0.0356,0.0357,0.0357,0.0357,0,0.0673,0.0694,0.0757,0.0808,0.0834,0.0886,0.097,0.1025,0.105,0.1133,0.1135,0.109,0.1,0.0835,0.0673,0.0541,0.0349,0.0347,0.0399,0.0377,0.0212,0.0155,0.0049,-0.0004,0.0245,0.0244,0.0244,0,0.0694,0.0729,0.0811,0.0858,0.0882,0.0962,0.1026,0.1075,0.1142,0.1217,0.1263,0.1202,0.1186,0.094,0.0694,0.0463,0.0346,0.0326,0.0299,0.0218,0.0133,0.0089,0.005,0.0326,0.0326,0.0326,0.0326,0,0.0736,0.0762,0.0815,0.0917,0.0987,0.1086,0.1176,0.1248,0.1323,0.1401,0.1479,0.1474,0.1255,0.1055,0.0729,0.0551,0.0277,0.0321,0.0229,0.0189,0.0147,0.0079,0.0339,0.0327,0.0327,0.0327,0.0327,0.0327,0.0766,0.0813,0.0884,0.0981,0.1072,0.1193,0.1284,0.1395,0.153,0.1657,0.1642,0.1686,0.1395,0.0971,0.0707,0.03,0.0281,0.0191,0.0127,0.009,0.0046,0.0307,0.0266,0.0265,0.0265,0.0265,0.0264,0,0.0804,0.0858,0.0945,0.1062,0.1162,0.1211,0.1375,0.148,0.1652,0.1782,0.1861,0.1793,0.1419,0.1016,0.0469,0.0179,0.0058,0.0024,-0.0018,-0.0053,0.0182,0.0194,0.0147,0.0147,0.0147,0.0147,0.0147,0.0147,0.0824,0.0905,0.0951,0.1113,0.1199,0.135,0.1451,0.1621,0.1761,0.1955,0.2034,0.2066,0.182,0.0815,0.0177,0.0017,-0.0171,-0.0212,-0.0325,-0.0146,-0.0135,-0.0124,-0.0124,-0.0238,-0.0238,-0.0506,-0.0509,-0.0511]}],[{"header":{"parameterUnit":"m.s-1","parameterCategory":2,"la1":30.2991,"la2":30.254,"lo1":-89.0895,"lo2":-89.0444,"dy":0.0017,"dx":0.0017,"nx":28,"ny":28,"refTime":"2024-06-03T03:00:00:Z","depth":"2","parameterNumber":2,"parameterNumberName":"U-component_of_CURRENTS"},"data":[0,0,0,0,0,0,0,0,0,0,0,0,0,0,0,0,0,0,0,0,0,0,0,0,0,0,0,0,0,0,0,0,0,0,0,0,0,0,0,0,0,0,0,0,0,0,0,0,0,0,0,0,0,0,0,0,0,0,0.2638,0.2639,0,0.264,0.264,0.264,0.2626,0.2626,0.2626,0.2625,0.262,0.262,0.262,0,0,0,0,0,0,0,0,0,0,0,0,0,0.2638,0.2638,0.2638,0.2639,0.2639,0.264,0.264,0.264,0.2626,0.2626,0.2626,0.2625,0.262,0.262,0.262,0,0,0,0,0,0,0,0,0,0,0,0,0,0.2637,0.2638,0.2638,0.2633,0.2633,0.264,0.264,0.264,0.2626,0.2626,0.2625,0.2625,0.262,0.262,0.262,0.2627,0,0,0.262,0.262,0,0,0,0,0,0,0,0,0.2637,0.2637,0.2634,0.2634,0.2634,0.2634,0.2638,0.2636,0.2626,0.2627,0.2625,0.2625,0.2626,0.2625,0.2624,0.2627,0.2626,0.262,0.262,0.262,0.262,0,0,0,0,0,0,0,0.2637,0.2637,0.2637,0.2634,0.2634,0.2636,0.2636,0.2637,0.2626,0.2627,0.2626,0.263,0.2625,0.2624,0.2623,0.2626,0.262,0.262,0.262,0.2621,0.2683,0.2685,0,0,0,0,0,0,0.264,0.2637,0.2637,0.2637,0.2637,0.2637,0.2636,0.2633,0.2626,0.2626,0.263,0.2629,0.2624,0.2623,0.2623,0.2668,0.262,0.2621,0.2621,0.2681,0.2683,0.2685,0,0,0,0,0,0,0.264,0.264,0.2637,0.2639,0.2639,0.2637,0.2634,0.2633,0.2641,0.2629,0.2628,0.264,0.2623,0.2623,0.264,0.2666,0.2621,0.2621,0.2679,0.2682,0.2684,0.2734,0,0,0,0,0,0,0.264,0.264,0.2643,0.2639,0.2639,0.2648,0.2634,0.2633,0.2643,0.2642,0.2637,0.2636,0.2623,0.264,0.264,0.2666,0.2621,0.2677,0.2681,0.2683,0.2731,0.2738,0.2745,0,0,0,0,0,0.264,0.2643,0.2643,0.2643,0.2642,0.2649,0.2649,0.2646,0.2644,0.2651,0.2653,0.2636,0.2659,0.2641,0.2641,0.2667,0.2676,0.268,0.2683,0.2728,0.2737,0.2745,0,0,0,0,0,0,0.2643,0.2642,0.2641,0.2644,0.2651,0.2648,0.2653,0.2655,0.2662,0.2663,0.2652,0.2651,0.2679,0.2669,0.2649,0.2697,0.2667,0.2671,0.2701,0.271,0.2717,0.2729,0.2621,0,0,0,0,0,0.2646,0.2648,0.2651,0.2654,0.2658,0.266,0.2665,0.2666,0.267,0.2672,0.267,0.2676,0.2693,0.2697,0.2705,0.2725,0.2731,0.2745,0.2752,0.2758,0.277,0.2811,0.2822,0.2697,0.2697,0.2697,0,0,0.2648,0.2649,0.265,0.2656,0.2659,0.2672,0.2661,0.2673,0.2692,0.2671,0.2694,0.27,0.2706,0.2733,0.2744,0.2726,0.2796,0.2763,0.2767,0.2776,0.2816,0.2828,0.2839,0.2699,0.2699,0.2699,0,0,0.2651,0.2655,0.2657,0.2668,0.268,0.2686,0.2695,0.2701,0.2711,0.2734,0.2734,0.276,0.2768,0.2786,0.2795,0.2847,0.2835,0.2849,0.2889,0.2929,0.2939,0.2949,0.2966,0.2976,0.2848,0.2848,0.2848,0,0.2655,0.2657,0.2661,0.2671,0.2685,0.2697,0.2712,0.2728,0.2742,0.2761,0.2748,0.2797,0.2799,0.285,0.287,0.2864,0.2875,0.2853,0.2938,0.2947,0.2956,0.2971,0.2982,0.2851,0.2851,0.2851,0.285,0,0.2659,0.2668,0.2673,0.2691,0.2709,0.2725,0.2751,0.2773,0.2788,0.2808,0.2859,0.2868,0.2899,0.2907,0.2904,0.2972,0.2957,0.2943,0.2914,0.2971,0.2984,0.2994,0.2855,0.2854,0.2853,0.2853,0,0,0.2643,0.267,0.2672,0.2677,0.2723,0.2727,0.278,0.2822,0.285,0.2883,0.2925,0.2971,0.2983,0.2996,0.3001,0.3035,0.3103,0.3019,0.3019,0.3031,0.3181,0.3112,0.3117,0.3105,0.3107,0.3109,0.3161,0,0.2644,0.2657,0.2683,0.2703,0.2711,0.2754,0.2796,0.2842,0.2883,0.2927,0.2974,0.3012,0.3016,0.3029,0.3075,0.3099,0.3135,0.3089,0.3127,0.3128,0.3057,0.3128,0.2865,0.2885,0.3172,0.3173,0.3174,0,0.2632,0.2644,0.2663,0.2695,0.2704,0.2728,0.2791,0.2834,0.2922,0.2955,0.3025,0.3054,0.3133,0.3111,0.3206,0.3178,0.3192,0.3202,0.3204,0.3132,0.308,0.2876,0.2893,0.3192,0.319,0.3189,0.3188,0,0.2591,0.2623,0.2633,0.2647,0.2697,0.2719,0.2758,0.2842,0.2897,0.2981,0.3032,0.3112,0.3169,0.321,0.3257,0.3234,0.3344,0.3307,0.3258,0.3253,0.3032,0.3003,0.3371,0.3371,0.337,0.337,0.337,0,0.257,0.2573,0.2608,0.261,0.2634,0.2683,0.2736,0.2789,0.2892,0.2957,0.3047,0.311,0.3201,0.3274,0.3285,0.3318,0.3374,0.3285,0.3274,0.3041,0.3014,0.3279,0.3268,0.3372,0.3372,0.3371,0.3371,0,0.2519,0.2544,0.2551,0.2594,0.2612,0.2629,0.273,0.2763,0.2876,0.2968,0.3003,0.3147,0.3232,0.3305,0.3376,0.3359,0.3377,0.3368,0.3084,0.3038,0.3246,0.3237,0.3312,0.331,0.3309,0.3308,0.3307,0,0.2492,0.2489,0.2527,0.2534,0.2553,0.2598,0.263,0.2743,0.2792,0.2974,0.3005,0.3146,0.3205,0.3308,0.3292,0.3302,0.3367,0.3054,0.2965,0.3266,0.3247,0.324,0.3233,0.2686,0.2679,0.2675,0.2671,0,0.2444,0.2459,0.2466,0.2483,0.2502,0.2532,0.2587,0.2629,0.2758,0.2842,0.2945,0.3014,0.3131,0.3032,0.3072,0.3035,0.3029,0.2955,0.3354,0.2748,0.2681,0.266,0.2673,0.2627,0.2631,0.2634,0.2637,0.2638,0.2408,0.2401,0.2411,0.2415,0.2435,0.2435,0.2429,0.249,0.2553,0.2633,0.278,0.2794,0.2837,0.2765,0.2682,0.2619,0.2829,0.2679,0.2692,0.271,0.2635,0.257,0.248,0.2483,0.2486,0.2489,0.2491,0,0.2347,0.234,0.2341,0.2328,0.2298,0.2347,0.2367,0.2333,0.2333,0.2433,0.2497,0.2324,0.2267,0.2307,0.2149,0.2151,0.2105,0.2051,0.1957,0.2004,0.2045,0.1932,0.1592,0.1589,0.1587,0.1584,0,0,0.2315,0.2278,0.2266,0.2186,0.2174,0.2107,0.2089,0.2055,0.2082,0.2049,0.2034,0.2204,0.2265,0.1912,0.1861,0.1697,0.1836,0.1629,0.2355,0.2295,0.2332,0.242,0.2303,0,0,0,0,0]},{"header":{"parameterUnit":"m.s-1","parameterCategory":2,"la1":30.2991,"la2":30.254,"lo1":-89.0895,"lo2":-89.0444,"dy":0.0017,"dx":0.0017,"nx":28,"ny":28,"refTime":"2024-06-03T03:00:00:Z","depth":"2","parameterNumber":3,"parameterNumberName":"V-component_of_CURRENTS"},"data":[0,0,0,0,0,0,0,0,0,0,0,0,0,0,0,0,0,0,0,0,0,0,0,0,0,0,0,0,0,0,0,0,0,0,0,0,0,0,0,0,0,0,0,0,0,0,0,0,0,0,0,0,0,0,0,0,0,0,0.0242,0.0241,0,0.0203,0.0202,0.0201,0.0176,0.0176,0.0176,0.0176,0.013,0.0128,0.0127,0,0,0,0,0,0,0,0,0,0,0,0,0,0.0249,0.025,0.0242,0.0241,0.0241,0.0203,0.0202,0.0201,0.0176,0.0176,0.0176,0.0176,0.013,0.0129,0.0127,0,0,0,0,0,0,0,0,0,0,0,0,0,0.0231,0.025,0.0242,0.0224,0.0222,0.0203,0.0202,0.0201,0.0176,0.0176,0.0176,0.0175,0.013,0.0129,0.0127,0.0118,0,0,0.0122,0.0121,0,0,0,0,0,0,0,0,0.0232,0.0231,0.0227,0.0225,0.0223,0.0195,0.0188,0.0174,0.0176,0.0192,0.0176,0.0175,0.0152,0.0148,0.014,0.0116,0.0114,0.0122,0.0121,0.012,0.0119,0,0,0,0,0,0,0,0.0233,0.0232,0.0225,0.0227,0.0225,0.0203,0.0201,0.0185,0.0172,0.0191,0.0189,0.0187,0.015,0.0141,0.0138,0.0114,0.0122,0.012,0.0119,0.0118,0.0092,0.0092,0,0,0,0,0,0,0.0243,0.0233,0.0226,0.0224,0.0229,0.0203,0.0201,0.0203,0.0172,0.0168,0.0187,0.0186,0.0144,0.014,0.0137,0.0146,0.012,0.0118,0.0117,0.0091,0.0092,0.0092,0,0,0,0,0,0,0.0243,0.0243,0.0228,0.0228,0.0225,0.0204,0.0207,0.0203,0.0198,0.0169,0.0165,0.0188,0.0144,0.0139,0.0131,0.0143,0.0117,0.0116,0.0091,0.0091,0.0092,0.0151,0,0,0,0,0,0,0.0244,0.0243,0.0249,0.0229,0.0225,0.0227,0.0207,0.0202,0.0197,0.0195,0.0169,0.0164,0.0144,0.0134,0.013,0.014,0.0114,0.009,0.0091,0.0092,0.0148,0.0153,0.0157,0,0,0,0,0,0.0244,0.0255,0.025,0.0249,0.0234,0.0227,0.0224,0.0207,0.0198,0.0201,0.0183,0.0165,0.0135,0.0133,0.0128,0.0138,0.009,0.0091,0.0092,0.0146,0.0152,0.0157,0,0,0,0,0,0,0.0259,0.0253,0.0247,0.0255,0.0246,0.0224,0.0224,0.0213,0.02,0.0198,0.017,0.0165,0.016,0.0141,0.014,0.0131,0.0109,0.0109,0.0152,0.0158,0.0162,0.0181,0.0113,0,0,0,0,0,0.0266,0.0275,0.0262,0.0268,0.0266,0.0246,0.0241,0.0231,0.0216,0.021,0.0193,0.0173,0.0158,0.0152,0.0133,0.0132,0.011,0.0134,0.0139,0.0143,0.0154,0.0128,0.0131,0.0094,0.0094,0.0094,0,0,0.0273,0.0271,0.0275,0.0272,0.0262,0.0269,0.0243,0.024,0.0248,0.0207,0.0212,0.0186,0.0159,0.0156,0.0153,0.0144,0.0141,0.0143,0.0147,0.0156,0.0129,0.0133,0.0136,0.0095,0.0095,0.0095,0,0,0.0294,0.029,0.0305,0.0303,0.0296,0.0286,0.029,0.0273,0.0269,0.0267,0.024,0.0225,0.0203,0.0189,0.0178,0.0196,0.0162,0.0187,0.0229,0.0205,0.0208,0.021,0.0186,0.0186,0.0193,0.0193,0.0193,0,0.0304,0.0323,0.0308,0.0322,0.0328,0.03,0.0319,0.031,0.0294,0.0298,0.0278,0.0247,0.022,0.0221,0.0226,0.0207,0.0187,0.0213,0.0211,0.0213,0.0215,0.0189,0.0188,0.0196,0.0196,0.0195,0.0195,0,0.0337,0.0353,0.0361,0.0375,0.0377,0.0388,0.0377,0.0378,0.0366,0.0357,0.0351,0.031,0.0296,0.028,0.0259,0.026,0.024,0.0218,0.0201,0.0222,0.0194,0.0192,0.02,0.0199,0.0198,0.0198,0,0,0.0363,0.0383,0.0388,0.0408,0.0409,0.0417,0.0431,0.0441,0.0463,0.0429,0.0449,0.0409,0.0384,0.0369,0.0334,0.0312,0.0298,0.0276,0.0273,0.0259,0.0245,0.0229,0.0225,0.0275,0.0275,0.0275,0.0221,0,0.0398,0.0443,0.0441,0.0485,0.0509,0.0494,0.0517,0.052,0.0514,0.0524,0.0476,0.0475,0.0419,0.0414,0.0382,0.0323,0.0296,0.0315,0.0221,0.0219,0.0207,0.0223,0.0239,0.0192,0.0218,0.0218,0.0218,0,0.0437,0.0465,0.0516,0.0556,0.0566,0.0583,0.0619,0.0639,0.0639,0.0634,0.0614,0.0574,0.0539,0.0484,0.0393,0.0408,0.0336,0.028,0.0276,0.0242,0.02,0.0174,0.0186,0.0214,0.0214,0.0214,0.0215,0,0.0474,0.052,0.0566,0.0578,0.0614,0.0634,0.0656,0.0673,0.0711,0.0705,0.0725,0.0661,0.0645,0.0542,0.0423,0.041,0.0318,0.0282,0.0197,0.0194,0.018,0.0177,0.0215,0.0215,0.0215,0.0216,0.0216,0,0.0518,0.0555,0.0587,0.0612,0.0682,0.0684,0.0756,0.0767,0.0798,0.0859,0.0789,0.081,0.066,0.0585,0.0457,0.0328,0.034,0.0212,0.0183,0.0201,0.02,0.0196,0.0195,0.0213,0.0214,0.0214,0.0215,0,0.0552,0.0571,0.063,0.0677,0.0701,0.0751,0.0829,0.088,0.09,0.0974,0.0976,0.0927,0.0836,0.0677,0.0516,0.039,0.0253,0.02,0.0232,0.0208,0.0135,0.0138,0.0102,0.0102,0.0101,0.01,0.01,0,0.0573,0.0607,0.0683,0.0728,0.0751,0.0826,0.0886,0.0929,0.099,0.1053,0.1091,0.1028,0.1003,0.0759,0.0526,0.0303,0.0263,0.0156,0.0129,0.0151,0.0125,0.0129,0.0132,0.0129,0.0129,0.0129,0.0129,0,0.0615,0.0639,0.0689,0.0786,0.0852,0.0945,0.1028,0.1093,0.1158,0.1224,0.1286,0.1271,0.1056,0.0839,0.0528,0.0366,0.019,0.0145,0.0163,0.0159,0.0172,0.0149,0.0152,0.0127,0.0127,0.0127,0.0127,0.0127,0.0645,0.0689,0.0755,0.0848,0.0933,0.1045,0.1129,0.1226,0.1344,0.1441,0.1423,0.1408,0.1153,0.0767,0.0488,0.0186,0.0207,0.0084,0.0086,0.0088,0.0104,0.0116,0.0063,0.0062,0.0062,0.0062,0.0062,0,0.068,0.0732,0.0814,0.0923,0.1017,0.1064,0.1213,0.1299,0.1447,0.1528,0.1583,0.1341,0.1102,0.08,0.0372,0.0116,0.0086,0.0011,0.0038,0.0042,0.0046,0.006,0.0006,0.0005,0.0005,0.0004,0,0,0.0699,0.0774,0.0816,0.0968,0.1051,0.119,0.1281,0.1417,0.1512,0.1596,0.159,0.1551,0.1201,0.0873,0.0522,0.0272,0.0209,0.0207,0.0281,0.0359,0.0366,0.0118,0.0149,0,0,0,0,0]}],[{"header":{"parameterUnit":"m.s-1","parameterCategory":2,"la1":30.2991,"la2":30.254,"lo1":-89.0895,"lo2":-89.0444,"dy":0.0017,"dx":0.0017,"nx":28,"ny":28,"refTime":"2024-06-03T03:00:00:Z","depth":"4","parameterNumber":2,"parameterNumberName":"U-component_of_CURRENTS"},"data":[0,0,0,0,0,0,0,0,0,0,0,0,0,0,0,0,0,0,0,0,0,0,0,0,0,0,0,0,0,0,0,0,0,0,0,0,0,0,0,0,0,0,0,0,0,0,0,0,0,0,0,0,0,0,0,0,0,0,0.1824,0.1825,0,0.185,0.185,0.185,0.1885,0.1886,0.1887,0.1888,0.1928,0.1929,0.1929,0,0,0,0,0,0,0,0,0,0,0,0,0,0.178,0.178,0.1824,0.1825,0.1825,0.185,0.185,0.185,0.1885,0.1886,0.1887,0.1888,0.1928,0.1929,0.1929,0,0,0,0,0,0,0,0,0,0,0,0,0,0.1799,0.178,0.1824,0.1848,0.185,0.185,0.185,0.185,0.1885,0.1886,0.1888,0.1889,0.1928,0.1929,0.1929,0.1907,0,0,0.1931,0.1931,0,0,0,0,0,0,0,0,0.1798,0.18,0.1844,0.1846,0.1849,0.1868,0.1849,0.1871,0.1885,0.1869,0.1888,0.1889,0.191,0.1912,0.1911,0.1909,0.1911,0.1931,0.1931,0.1931,0.1931,0,0,0,0,0,0,0,0.1797,0.1799,0.1832,0.1844,0.1847,0.1848,0.1852,0.1853,0.1881,0.1871,0.1874,0.188,0.1912,0.191,0.1912,0.1912,0.1931,0.1931,0.1931,0.1931,0.2006,0.2008,0,0,0,0,0,0,0.1799,0.1798,0.1831,0.1833,0.1829,0.1848,0.1853,0.1858,0.1881,0.1886,0.1879,0.1882,0.1909,0.1911,0.1914,0.1988,0.1931,0.1931,0.1932,0.2005,0.2007,0.2009,0,0,0,0,0,0,0.1797,0.1801,0.183,0.1818,0.1822,0.1848,0.1854,0.1858,0.1896,0.1887,0.1893,0.1918,0.191,0.1913,0.195,0.1986,0.1932,0.1932,0.2003,0.2005,0.2008,0.2073,0,0,0,0,0,0,0.1796,0.18,0.1824,0.1818,0.1823,0.1854,0.1853,0.1858,0.1897,0.1902,0.1921,0.1924,0.1911,0.1949,0.195,0.1986,0.1932,0.2001,0.2004,0.2007,0.2069,0.2078,0.2085,0,0,0,0,0,0.1794,0.1812,0.1824,0.183,0.1848,0.1855,0.1858,0.1878,0.1898,0.1917,0.1937,0.1925,0.1971,0.1951,0.1952,0.1988,0.1999,0.2003,0.2007,0.2065,0.2076,0.2085,0,0,0,0,0,0,0.1804,0.1817,0.1831,0.1853,0.1867,0.1863,0.1888,0.1901,0.1929,0.1948,0.1942,0.1945,0.1993,0.1982,0.1961,0.2021,0.1985,0.1989,0.203,0.2039,0.2048,0.2055,0.1933,0,0,0,0,0,0.1816,0.1839,0.1845,0.1869,0.188,0.1893,0.1907,0.1921,0.1936,0.1953,0.1966,0.1985,0.2001,0.2016,0.2025,0.2053,0.2051,0.208,0.2088,0.2095,0.2103,0.2133,0.2144,0.2021,0.2021,0.2021,0,0,0.1829,0.184,0.1855,0.1875,0.1889,0.1906,0.1905,0.1938,0.1963,0.1951,0.2004,0.2016,0.2016,0.2052,0.2072,0.2052,0.213,0.21,0.2106,0.211,0.2138,0.215,0.216,0.2024,0.2023,0.2023,0,0,0.1845,0.1875,0.1893,0.1909,0.1939,0.1944,0.1964,0.1983,0.201,0.2049,0.2054,0.2091,0.2112,0.2121,0.2126,0.2185,0.2173,0.2196,0.2242,0.2271,0.2281,0.229,0.2305,0.2315,0.2199,0.2199,0.2199,0,0.1863,0.1882,0.1901,0.1919,0.1941,0.1967,0.199,0.2014,0.2047,0.2073,0.208,0.2138,0.2143,0.2183,0.2209,0.2204,0.2216,0.2203,0.2282,0.229,0.2298,0.2311,0.2321,0.2202,0.2202,0.2202,0.2201,0,0.1876,0.1909,0.1923,0.1957,0.1983,0.2011,0.204,0.2079,0.2118,0.214,0.2205,0.2216,0.2251,0.2262,0.2256,0.2319,0.2308,0.2289,0.2254,0.2314,0.2324,0.2333,0.2208,0.2206,0.2205,0.2204,0,0,0.1865,0.1922,0.1932,0.1952,0.201,0.202,0.2082,0.2127,0.2166,0.2219,0.2269,0.2316,0.2339,0.2347,0.2352,0.238,0.2448,0.2369,0.2369,0.238,0.2513,0.2349,0.2343,0.2449,0.2451,0.2452,0.2498,0,0.1873,0.191,0.1944,0.199,0.2007,0.2061,0.2106,0.2159,0.221,0.2264,0.2309,0.2359,0.2366,0.2393,0.243,0.2445,0.2476,0.2437,0.2457,0.2457,0.2301,0.2349,0.2459,0.2504,0.2506,0.2508,0.2509,0,0.1863,0.1892,0.1939,0.1996,0.2012,0.2052,0.2128,0.2176,0.2261,0.2304,0.2376,0.2409,0.2483,0.2467,0.2544,0.2525,0.2534,0.2537,0.2538,0.2367,0.2309,0.2432,0.2524,0.2523,0.2522,0.2521,0.252,0,0.1816,0.188,0.192,0.1943,0.2016,0.206,0.2111,0.2197,0.225,0.2344,0.2394,0.247,0.2529,0.2561,0.2596,0.2581,0.2658,0.2627,0.2487,0.2475,0.2581,0.257,0.2675,0.2674,0.2674,0.2674,0.2674,0,0.1784,0.1817,0.1907,0.1924,0.1979,0.2043,0.2116,0.2175,0.2276,0.2329,0.2424,0.2468,0.2562,0.2615,0.262,0.2584,0.2685,0.2501,0.2477,0.2607,0.2599,0.2587,0.2576,0.2676,0.2676,0.2675,0.2675,0,0.1719,0.1782,0.1828,0.1921,0.1959,0.2002,0.2127,0.2162,0.2277,0.2353,0.2392,0.2508,0.2562,0.2625,0.2674,0.2603,0.2582,0.2543,0.2688,0.2671,0.2373,0.2365,0.2375,0.237,0.2365,0.2362,0.2358,0,0.1683,0.1704,0.182,0.1853,0.1906,0.1987,0.2033,0.2154,0.2191,0.2346,0.2357,0.2472,0.2524,0.2469,0.2544,0.2533,0.2505,0.2475,0.2411,0.2367,0.2344,0.2343,0.2342,0.2351,0.235,0.2349,0.2348,0,0.1615,0.1679,0.1721,0.1794,0.1854,0.1906,0.1982,0.2002,0.2123,0.2252,0.2259,0.2277,0.2334,0.2356,0.2376,0.2362,0.2477,0.2426,0.2435,0.2374,0.2338,0.2319,0.2323,0.2332,0.2334,0.2335,0.2336,0,0.1575,0.1591,0.1661,0.1707,0.1778,0.1788,0.1847,0.1873,0.1931,0.2084,0.2081,0.2192,0.2305,0.2268,0.2281,0.2261,0.2217,0.2128,0.2151,0.2169,0.2079,0.2001,0.1874,0,0,0,0,0,0.1519,0.152,0.156,0.1594,0.1655,0.1695,0.1785,0.1841,0.196,0.1908,0.1987,0.2016,0.2029,0.2089,0.2026,0.2197,0.2236,0.2112,0.2149,0.2244,0.2262,0.2174,0,0,0,0,0,0,0.1479,0.1518,0.1521,0.1485,0.1485,0.1533,0.1585,0.1669,0.1643,0.1775,0.1793,0.1889,0.1938,0.2045,0.1986,0.2004,0.1982,0.2185,0.2179,0.2233,0.225,0.2265,0.2181,0,0,0,0,0]},{"header":{"parameterUnit":"m.s-1","parameterCategory":2,"la1":30.2991,"la2":30.254,"lo1":-89.0895,"lo2":-89.0444,"dy":0.0017,"dx":0.0017,"nx":28,"ny":28,"refTime":"2024-06-03T03:00:00:Z","depth":"4","parameterNumber":3,"parameterNumberName":"V-component_of_CURRENTS"},"data":[0,0,0,0,0,0,0,0,0,0,0,0,0,0,0,0,0,0,0,0,0,0,0,0,0,0,0,0,0,0,0,0,0,0,0,0,0,0,0,0,0,0,0,0,0,0,0,0,0,0,0,0,0,0,0,0,0,0,0.0148,0.0148,0,0.0123,0.0122,0.0122,0.0108,0.0108,0.0108,0.0108,0.0078,0.0077,0.0076,0,0,0,0,0,0,0,0,0,0,0,0,0,0.0151,0.0151,0.0148,0.0148,0.0147,0.0123,0.0122,0.0122,0.0108,0.0108,0.0108,0.0108,0.0078,0.0077,0.0076,0,0,0,0,0,0,0,0,0,0,0,0,0,0.0139,0.0151,0.0148,0.0138,0.0137,0.0123,0.0122,0.0122,0.0108,0.0108,0.0108,0.0108,0.0078,0.0077,0.0076,0.0067,0,0,0.0072,0.0071,0,0,0,0,0,0,0,0,0.014,0.0139,0.014,0.0139,0.0137,0.0119,0.0112,0.0103,0.0108,0.0118,0.0108,0.0108,0.0091,0.0089,0.0083,0.0066,0.0065,0.0072,0.0071,0.007,0.007,0,0,0,0,0,0,0,0.0141,0.014,0.0137,0.0139,0.0138,0.0123,0.0122,0.011,0.0104,0.0117,0.0116,0.0114,0.0091,0.0084,0.0082,0.0064,0.0072,0.0071,0.007,0.0069,0.0052,0.0052,0,0,0,0,0,0,0.0147,0.0141,0.0138,0.0136,0.014,0.0123,0.0122,0.0124,0.0104,0.0101,0.0114,0.0114,0.0087,0.0084,0.0081,0.0091,0.007,0.0069,0.0069,0.0052,0.0052,0.0052,0,0,0,0,0,0,0.0147,0.0147,0.0139,0.0138,0.0136,0.0124,0.0126,0.0124,0.0123,0.0103,0.01,0.0118,0.0086,0.0083,0.008,0.0089,0.0069,0.0068,0.0051,0.0052,0.0052,0.0097,0,0,0,0,0,0,0.0148,0.0148,0.0153,0.0139,0.0137,0.0139,0.0126,0.0123,0.0122,0.0121,0.0104,0.0101,0.0086,0.0082,0.0079,0.0087,0.0067,0.0051,0.0052,0.0052,0.0095,0.0099,0.0102,0,0,0,0,0,0.0148,0.0156,0.0154,0.0154,0.0145,0.014,0.0138,0.0127,0.0123,0.0126,0.0115,0.0102,0.0083,0.0081,0.0077,0.0085,0.0051,0.0051,0.0052,0.0093,0.0098,0.0102,0,0,0,0,0,0,0.0158,0.0155,0.0152,0.0159,0.0154,0.0138,0.014,0.0133,0.0126,0.0126,0.0106,0.0103,0.0101,0.0087,0.0086,0.0081,0.0064,0.0064,0.0097,0.0101,0.0104,0.0119,0.0066,0,0,0,0,0,0.0164,0.0172,0.0163,0.0169,0.0168,0.0155,0.0153,0.0147,0.0137,0.0135,0.0123,0.011,0.0099,0.0096,0.0083,0.0083,0.0063,0.0085,0.0088,0.0091,0.01,0.0075,0.0077,0.0054,0.0054,0.0054,0,0,0.017,0.0169,0.0173,0.0172,0.0167,0.0173,0.0154,0.0154,0.0162,0.0132,0.0139,0.0121,0.0101,0.01,0.0098,0.0092,0.0087,0.0092,0.0095,0.0102,0.0076,0.0078,0.008,0.0055,0.0055,0.0055,0,0,0.0185,0.0184,0.0197,0.0197,0.0194,0.0187,0.0191,0.018,0.0179,0.0181,0.0161,0.0151,0.0137,0.0125,0.0117,0.0132,0.0104,0.0126,0.0159,0.0134,0.0136,0.0137,0.0113,0.0112,0.013,0.0131,0.0131,0,0.0193,0.0209,0.0199,0.021,0.0216,0.0198,0.0214,0.0209,0.02,0.0204,0.019,0.0169,0.0149,0.0149,0.0154,0.014,0.0122,0.0146,0.0139,0.014,0.0141,0.0116,0.0114,0.0133,0.0133,0.0132,0.0132,0,0.0217,0.0232,0.0239,0.0251,0.0254,0.0264,0.0258,0.0262,0.0256,0.025,0.0247,0.0217,0.0208,0.0195,0.018,0.0178,0.0162,0.0144,0.0131,0.0146,0.0118,0.0116,0.0136,0.0135,0.0134,0.0134,0,0,0.0233,0.0253,0.0258,0.0276,0.028,0.0287,0.03,0.031,0.0329,0.0306,0.0321,0.0292,0.0274,0.0264,0.0237,0.0215,0.0198,0.0188,0.0186,0.0168,0.0145,0.0132,0.0128,0.018,0.0179,0.0179,0.0124,0,0.0259,0.0295,0.0296,0.0334,0.0353,0.0347,0.0367,0.0371,0.0369,0.0378,0.034,0.0343,0.0301,0.03,0.027,0.022,0.0194,0.0215,0.013,0.0128,0.0118,0.0125,0.0179,0.0122,0.0121,0.0121,0.012,0,0.0285,0.0309,0.0351,0.0389,0.0398,0.0415,0.0448,0.0467,0.0468,0.0465,0.0449,0.042,0.039,0.0349,0.0267,0.0284,0.0222,0.0175,0.0171,0.0144,0.011,0.0103,0.0115,0.0115,0.0116,0.0116,0.0117,0,0.0308,0.0349,0.0389,0.04,0.0435,0.0455,0.0479,0.0495,0.0527,0.0525,0.0539,0.0486,0.0473,0.0386,0.0286,0.0279,0.0189,0.0164,0.0091,0.0089,0.0098,0.0097,0.0103,0.0103,0.0104,0.0104,0.0104,0,0.0336,0.0369,0.0405,0.0427,0.0488,0.0496,0.0558,0.0571,0.0598,0.0643,0.0593,0.0602,0.0483,0.0415,0.0309,0.0196,0.0204,0.0102,0.0077,0.0117,0.0119,0.0095,0.0095,0.0102,0.0102,0.0102,0.0103,0,0.0354,0.0376,0.0428,0.0476,0.0501,0.0546,0.0619,0.0661,0.0682,0.0735,0.0739,0.0693,0.0608,0.0479,0.034,0.024,0.0122,0.0077,0.0137,0.0115,0.0032,0.0034,-0.0006,-0.0006,-0.0007,-0.0008,-0.0008,0,0.0364,0.0393,0.0469,0.051,0.0536,0.0606,0.0659,0.0702,0.0746,0.079,0.0812,0.0756,0.0704,0.0504,0.0357,0.0153,0.0117,0.0047,0.0031,0.0042,0.0022,0.0025,0.0029,-0.001,-0.001,-0.001,-0.001,0,0.0386,0.0415,0.0459,0.0547,0.0609,0.0689,0.0761,0.08,0.0854,0.0873,0.0876,0.0779,0.0684,0.0514,0.0358,0.0207,0.0086,0.0038,0.0039,0.0023,0.0037,0.0018,0.0022,-0.0013,-0.0012,-0.0012,-0.0012,0,0.0403,0.0439,0.0499,0.0578,0.0662,0.0743,0.0784,0.0834,0.0883,0.0919,0.0917,0.0818,0.076,0.0543,0.0398,0.025,0.0204,0.0135,0.0129,0.013,0.0178,0.0215,0.0206,0,0,0,0,0,0.0416,0.0455,0.0525,0.061,0.0694,0.0747,0.084,0.0872,0.0921,0.0929,0.0926,0.0837,0.064,0.0558,0.0409,0.0366,0.0166,0.0182,0.0081,-0.0027,-0.0024,0.0007,0,0,0,0,0,0,0.0422,0.0484,0.052,0.0622,0.0682,0.0779,0.0842,0.0878,0.0882,0.0908,0.081,0.0775,0.0585,0.0724,0.0398,0.0356,0.0264,0.0097,0.0093,-0.0028,-0.0026,-0.0023,0.0009,0,0,0,0,0]}]]